RJFTRJFS

Guest
Details From RJFT - KUMAMOTO
To RJFS - SAGA
Flight Number -
Tags generated
Created
Modified
Stats Distance 34 nm / 62 km
Max Altitude 1,900 ft / 579 m
Waypoints 3
Social Downloads 0
Likes 0
Share VATSIM

Download

Looking for another format? Having issues loading an existing format? Contact us
Advertisement - Login to hide

Notes

Basic altitude profile: - Ascent Rate: 2500ft/min - Ascent Speed: 250kts - Cruise Altitude: 35000ft - Cruise Speed: 420kts - Descent Rate: 1500ft/min - Descent Speed: 250kts Options: - Use NATs: yes - Use PACOTS: yes - Use low airways: yes - Use high airways: yes

Route

RJFT OMUTA RJFS

ID Type Via Altitude Latitude Longitude Leg Dist Tot Dist Heading (true) Name
O RJFT APT - 0 ft / 0 m 32.83732˚ 130.85505˚ - 0 nm - KUMAMOTO
OMUTA FIX - 1,900 ft / 579 m 33.05894˚ 130.45039˚ 24 nm 24 nm 303° / 303° -
O RJFS APT - 0 ft / 0 m 33.14972˚ 130.30222˚ 9 nm 33 nm 306° / 306° SAGA

Altitude Profile

Advertisement - Login to hide

RJFT

Details ICAO RJFT (KMJ)
Name KUMAMOTO
Region Japan
Timezone Asia/Tokyo (UTC+9.0)
Stats Elevation 642 ft / 196 m (AMSL)
Location 32.837318° 130.855052°
Runways 1
Magnetic Variation 7.259° W

METAR

RJFT 230100Z 06003KT 320V090 9999 FEW005 BKN035 21/20 Q1006

Decode

TAF

TAF RJFT 222306Z 2300/2406 23008KT 8000 -SHRA FEW005 SCT008 BKN015 TEMPO 2300/2303 4000 -SHRA BR FEW002 SCT005 BKN008 TEMPO 2303/2306 2000 SHRA BR FEW002 SCT005 BKN008 TEMPO 2306/2309 4000 -SHRA BR FEW002 SCT005 BKN008 BECMG 2308/2310 06004KT BECMG 2400/2403 30005KT

Decode

Departure Runways

ID Width Length Bearing (true) Bearing (mag) Surface Threshold Offset Overrun Length
07 150 ft / 46 m 9,833 ft / 2,997 m 64.47° 71.73° Asphalt 0 ft / 0 m 200 ft / 61 m
25 150 ft / 46 m 9,833 ft / 2,997 m 244.49° 251.75° Asphalt 0 ft / 0 m 200 ft / 61 m

RJFS

Details ICAO RJFS (HSG)
Name SAGA
Region Japan
Timezone Asia/Tokyo (UTC+9.0)
Stats Elevation 5 ft / 2 m (AMSL)
Location 33.149718° 130.302221°
Runways 1
Magnetic Variation 7.347° W

METAR

RJFS 230129Z 15012KT 6000 -SHRA FEW005 BKN010 BKN015 20/20 Q1005 RMK 2ST005 5CU010 7CU015 A2968

Decode

TAF

TAF AMD TAF AMD RJFS 230009Z 2300/2406 17010KT 8000 -SHRA FEW008 SCT010 BKN020 TEMPO 2300/2304 4000 -SHRA BR FEW005 BKN008 BKN015 BECMG 2303/2305 33009KT BECMG 2315/2318 02003KT BECMG 2400/2403 20005KT

Decode

Destination Runways

ID Width Length Bearing (true) Bearing (mag) Surface Threshold Offset Overrun Length
11 148 ft / 45 m 6,550 ft / 1,997 m 99.29° 106.64° Asphalt 0 ft / 0 m 200 ft / 61 m
29 148 ft / 45 m 6,550 ft / 1,997 m 279.30° 286.65° Asphalt 0 ft / 0 m 200 ft / 61 m

Approach Navaids

Runway Type Ident Frequency Range Bearing (true) Bearing (mag) Slope Elevation
29 Localiser ISG 110.15 MHz 18 nm / 33 km 279.29° 286.64° - 6 ft / 2 m (AMSL)
29 Glidescope ISG 110.15 MHz 10 nm / 19 km 279.29° 286.64° 3.00° 23 ft / 7 m (AMSL)
29 DME ISG 110.15 MHz 18 nm / 33 km - - - 23 ft / 7 m (AMSL)